Lid_Strength_Index
4 4 2 1 1 1 2 1 1 1 1 1 1 0 0 0 1 2 5 3 5 8 7 7 6 8 8 8 9 8 8 8 9 11 11 11 12 11 12 11 12 13 13 14 13 15 16 6 7 11 9 7 6 6
5 4 3 2 1 2 2 2 1 1 1 1 1 1 1 1 1 2 5 2 2 6 7 5 4 3 5 6 8 8 8 8 8 10 11 11 11 11 12 13 10 12 11 12 11 12 8 7 7 6 6 7 6 6
4 4 4 4 2 2 2 2 2 2 1 1 1 1 1 1 1 2 6 5 4 6 6 6 5 3 4 5 5 8 8 7 8 7 9 10 11 10 13 13 12 9 9 11 11 10 8 7 6 5 5 6 5 5
4 4 5 5 4 3 2 2 2 2 2 1 1 1 1 1 2 2 6 5 5 6 9 7 3 6 5 6 6 7 7 8 7 7 9 10 10 9 11 10 10 9 9 10 11 9 8 7 6 5 5 4 4 4
4 4 4 5 5 4 3 2 2 2 2 2 2 1 1 2 2 3 6 5 4 6 9 8 5 4 4 6 7 7 8 9 8 9 10 10 9 8 9 9 10 8 10 11 12 8 8 8 5 4 5 5 4 5
4 4 4 4 5 5 4 3 3 3 3 2 2 2 2 2 3 6 5 4 5 5 7 10 6 6 8 7 7 9 8 9 7 8 9 8 7 8 11 12 8 7 6 6 8 6 6 6 5 4 5 5 4 4
5 4 4 4 4 5 5 4 3 3 2 3 2 2 2 2 5 7 6 5 5 5 7 9 9 5 5 6 6 6 6 7 7 8 8 8 7 7 10 12 8 7 6 6 5 6 7 6 6 4 4 4 4 4
4 4 4 4 4 4 5 5 4 4 3 3 3 2 2 3 4 6 5 4 6 6 6 10 9 8 6 8 8 7 7 7 7 7 7 8 8 8 11 8 7 6 6 6 6 5 6 5 5 4 4 4 5 5
4 4 4 4 4 4 4 5 4 4 4 4 3 3 4 5 6 4 1 3 5 6 9 9 11 11 7 8 8 7 8 9 7 8 8 8 9 11 9 8 7 7 7 7 6 5 5 5 5 5 5 5 5 5
4 4 4 4 4 4 4 4 5 4 5 5 5 6 7 4 1 2 5 7 8 8 8 11 8 10 8 9 9 8 8 9 11 9 7 10 10 8 7 7 7 7 6 6 8 7 7 6 6 5 5 4 4 4
5 5 5 5 4 4 4 4 4 5 4 5 7 7 4 2 5 6 8 10 10 10 9 9 9 11 7 9 9 7 9 9 13 10 10 11 12 9 7 6 5 5 5 5 5 5 4 5 5 5 5 4 4 4
4 4 5 5 4 4 4 4 4 4 4 6 6 6 6 6 7 9 10 10 10 10 8 9 9 9 7 6 8 8 11 10 13 8 11 13 10 7 6 6 6 5 5 4 4 4 4 4 4 4 4 4 4 3
4 4 4 4 4 4 3 4 4 4 4 4 6 7 7 8 12 12 13 11 11 8 7 7 9 7 6 7 8 9 12 12 8 12 13 11 8 7 6 6 6 5 4 4 4 4 4 4 3 4 4 4 3 3
4 4 4 4 3 3 3 3 4 4 4 6 8 13 10 11 10 10 10 9 6 6 6 7 8 8 8 9 9 12 10 9 13 14 13 10 8 7 6 5 5 5 5 4 4 4 4 4 4 3 3 3 4 4
4 4 3 3 3 2 3 3 3 3 5 7 7 13 10 8 8 7 6 7 6 5 6 7 7 7 9 10 9 10 12 13 12 13 10 8 7 6 6 5 5 5 5 5 4 5 4 4 4 4 4 4 4 3
4 4 3 3 3 2 3 4 3 4 4 7 7 9 8 8 8 7 7 7 5 5 5 6 9 10 11 10 12 12 13 13 12 9 7 7 7 6 6 5 5 5 5 5 4 4 4 4 4 4 4 4 4 3
4 4 3 3 4 2 2 3 4 5 6 7 8 7 8 8 8 7 6 6 4 6 9 9 11 11 9 12 13 10 11 10 8 7 6 6 6 6 6 5 4 4 4 5 5 5 4 4 3 4 5 5 4 3
4 4 4 4 4 3 3 3 5 6 8 7 9 7 7 6 7 7 7 5 6 7 7 9 8 10 13 13 12 9 7 6 6 6 6 6 6 5 5 5 4 4 4 4 5 4 4 4 4 4 4 4 4 5
6 6 4 4 4 5 5 5 5 8 8 7 7 6 7 7 7 5 5 6 5 5 6 8 10 11 10 8 8 7 7 7 7 7 6 5 5 5 5 4 4 4 4 5 4 4 4 3 3 3 3 3 4 4
4 4 3 3 3 4 6 6 4 7 8 7 7 8 7 8 7 5 5 5 5 6 8 9 9 8 8 7 5 5 6 6 7 7 7 6 5 5 5 5 4 4 4 4 4 5 4 4 3 4 4 5 5 5
5 3 2 3 6 4 5 5 6 6 7 7 6 7 7 6 7 7 7 6 7 8 9 7 6 6 6 4 4 4 5 6 6 7 6 6 5 5 5 4 4 4 5 4 5 4 5 4 3 4 4 5 4 3
6 3 3 3 4 4 6 5 7 6 7 7 7 6 8 8 8 7 6 8 8 7 6 7 6 5 5 5 5 4 4 4 5 5 6 6 6 6 5 5 5 5 5 4 5 4 4 4 4 3 3 3 4 4
5 4 5 4 6 7 9 5 7 6 9 8 7 8 8 8 7 5 9 7 7 5 4 4 5 4 5 5 4 4 4 5 5 5 4 4 6 5 5 4 5 5 5 4 5 4 3 6 4 4 3 4 4 3
4 6 6 7 7 9 6 8 6 7 7 8 9 9 9 8 6 8 9 8 6 5 5 5 5 5 4 5 5 5 4 4 4 4 4 5 5 5 4 4 4 4 4 4 4 4 4 4 5 3 3 3 3 4
8 8 7 11 6 8 9 9 9 9 10 9 9 9 8 7 9 10 10 8 7 6 5 5 4 5 6 5 5 5 4 4 5 6 6 4 4 5 5 4 4 4 3 4 4 4 4 3 4 3 3 3 4 4
11 7 9 8 8 9 9 10 10 10 9 9 9 8 7 9 10 11 9 7 6 6 5 5 5 5 5 5 5 5 4 3 6 6 6 3 3 4 5 6 5 5 3 3 3 3 3 3 3 4 3 4 6 4
10 9 7 6 7 7 8 7 7 9 10 11 9 9 9 11 11 9 6 5 5 4 3 3 4 4 4 5 4 4 4 4 5 5 4 3 3 3 4 4 5 4 3 2 2 2 3 3 3 4 4 4 3 4
8 7 9 8 7 6 9 9 9 10 9 7 8 10 10 11 10 6 5 4 3 3 3 3 3 4 5 4 3 3 3 3 4 3 3 3 3 3 2 2 4 6 4 5 3 3 2 2 3 3 3 4 4 3
8 8 8 9 9 8 8 8 8 7 6 7 9 9 8 6 4 4 4 3 3 4 5 4 5 3 4 3 4 4 4 3 5 5 5 5 5 4 3 3 3 3 2 3 8 5 2 2 2 2 3 3 3 3
9 7 9 8 9 9 8 6 6 6 6 5 5 5 6 5 3 2 3 3 4 4 4 4 4 3 4 4 4 5 3 4 3 4 4 5 4 3 3 3 3 3 3 3 3 4 6 3 4 2 2 2 3 3
7 6 7 7 9 7 6 5 5 6 6 6 5 6 6 5 4 3 3 3 3 3 4 4 3 3 5 4 5 6 6 5 5 5 4 4 4 3 3 3 3 2 2 3 3 3 3 3 3 3 3 3 3 3
6 7 8 9 8 6 5 6 7 7 6 7 7 6 5 6 7 5 3 3 4 4 4 4 4 3 3 4 4 5 6 5 5 5 5 4 4 4 3 3 2 2 2 2 3 2 3 3 3 3 3 3 3 3
7 7 7 7 8 8 6 7 7 8 7 8 7 6 6 7 8 5 2 1 2 3 3 3 3 2 2 2 4 4 5 4 5 7 7 6 6 6 4 4 4 3 2 2 3 3 3 3 3 3 3 3 3 3